Find GPS IIR-14(M)

NORAD ID: 28874 Int'l Des: 2005-038 Owner: AFSMC Country: US Constellation: GPS operational
MEOGNSS

Current View

Loading 3D Globe...

About GPS IIR-14(M)

Description loading...

Upcoming Passes

Passes for default location (London). Set your location on the main map for personalized predictions.

Altitude History

Loading altitude history...

Two-Line Element Set

1 28874U 05038A 26149.98016145 -.00000060 00000-0 00000+0 0 9997
2 28874 54.8935 273.9121 0127762 296.0409 118.9472 2.00567048151477
Epoch: May 29, 2026 • Age: 12 hours

Current Status

Altitude 20381.9 km
Velocity 3.85 km/s
Sub-Earth Point 46.09°N, 102.4°W
Launch Date Sep 26, 2005
Age 20.6 years
Type navigation

Technical Details

Classification Payload
Mass 1077.00 kg
Dry Mass 910.00 kg
Total Mass 2032.00 kg
Length 1.50 m
Diameter 1.90 m
Span 19.30 m
Shape Box + 2 Pan
Manufacturer LMVF
Bus Type Series 4000
Phase Status In Orbit
Owner/State AFSMC/US

Most Searched